Regional Weather Roundup
Issued by NWS Little Rock, AR

Home | Current Version | Previous Version | Graphics & Text | Print | Product List | Glossary On
Versions: 1 2 3 4 5 6 7 8 9 10 11 12 13 14 15 16 17 18 19 20 21 22 23 24 25 26 27 28 29 30 31 32 33 34 35 36 37 38 39 40 41 42 43 44 45 46 47 48 49 50
000
ASUS44 KLZK 190005
RWRLZK

WEATHER ROUNDUP FOR ARKANSAS
NATIONAL WEATHER SERVICE LITTLE ROCK AR
700 PM CDT SAT APR 18 2015

NOTE: "FAIR" INDICATES FEW OR NO CLOUDS BELOW 12,000 FEET WITH NO
SIGNIFICANT WEATHER AND/OR OBSTRUCTIONS TO VISIBILITY.

ARZ001-003-010-029-190100-
NORTHWEST ARKANSAS

CITY           SKY/WX    TMP DP  RH WIND       PRES   REMARKS
FAYETTEVILLE   PTCLDY    70  59  68 E9G25     29.82F
6HR MIN TEMP:  61; 6HR MAX TEMP:  73; 6HR PCP:  0.02;

FORT SMITH     CLEAR     73  61  65 E8        29.80S
6HR MIN TEMP:  67; 6HR MAX TEMP:  75;

HARRISON       CLOUDY    66  59  78 CALM      29.86F
6HR MIN TEMP:  63; 6HR MAX TEMP:  71; 6HR PCP:  0.08;

BENTONVILLE    CLEAR     70  57  64 E10       29.84S
6HR MIN TEMP:  63; 6HR MAX TEMP:  72; 6HR PCP:  0.03;

ROGERS         CLEAR     70  58  65 E10       29.84F
6HR MIN TEMP:  63; 6HR MAX TEMP:  71; 6HR PCP: TRACE;

SILOAM SPGS    CLEAR     70  57  64 E5        29.83S
6HR MIN TEMP:  63; 6HR MAX TEMP:  72;

HIGHFILL       CLEAR     70  58  65 E9        29.83S
6HR MIN TEMP:  62; 6HR MAX TEMP:  72; 6HR PCP:  0.02;

SPRINGDALE     PTCLDY    70  57  64 E9        29.85F
$$

ARZ004-005-016-190100-
NORTH CENTRAL ARKANSAS

CITY           SKY/WX    TMP DP  RH WIND       PRES   REMARKS
BATESVILLE     CLOUDY    72  63  73 E6        29.84F
6HR MIN TEMP:  72; 6HR MAX TEMP:  75;

FLIPPIN        CLOUDY    70 N/A N/A E3        29.83F
6HR MIN TEMP:  66; 6HR MAX TEMP:  73;

MTN HOME       CLOUDY    69  59  70 CALM      29.85F
6HR MIN TEMP:  67; 6HR MAX TEMP:  72;

$$

ARZ040-041-190100-
WEST CENTRAL ARKANSAS

CITY           SKY/WX    TMP DP  RH WIND       PRES   REMARKS
MENA           CLEAR     72  63  73 E7        29.81F
MOUNT IDA      MOCLDY    69  61  75 VRB3      29.80S
6HR MIN TEMP:  69; 6HR MAX TEMP:  73; 6HR PCP: TRACE;

$$

ARZ009-017-025-026-028-190100-
NORTHEAST ARKANSAS

CITY           SKY/WX    TMP DP  RH WIND       PRES   REMARKS
CORNING          N/A     73  66  78 SE5       29.85F
JONESBORO      CLOUDY    72  63  73 SE5       29.83F
6HR MIN TEMP:  72; 6HR MAX TEMP:  75;

NEWPORT        LGT RAIN  72  66  81 SE15      29.85S
6HR MIN TEMP:  72; 6HR MAX TEMP:  76; 6HR PCP: TRACE;

WALNUT RIDGE   CLOUDY    73  63  68 CALM      29.84F
6HR MIN TEMP:  73; 6HR MAX TEMP:  75;

BLYTHEVILLE    CLOUDY    75  62  64 CALM      29.84F
6HR MIN TEMP:  74; 6HR MAX TEMP:  78;

$$

ARZ022-023-033-042-044-190100-
CENTRAL ARKANSAS

CITY           SKY/WX    TMP DP  RH WIND       PRES   REMARKS
LITTLE ROCK    RAIN      67  63  87 E6        29.83F FOG
6HR MIN TEMP:  67; 6HR MAX TEMP:  74; 6HR PCP:  0.43;

N LITTLE ROCK  CLOUDY    69  65  86 E7          N/A
6HR MIN TEMP:  67; 6HR MAX TEMP:  74;

JACKSONVILLE   LGT RAIN  66  65  96 E8        29.83F FOG
6HR MIN TEMP:  66; 6HR MAX TEMP:  73; 6HR PCP:  0.02;

SEARCY         LGT RAIN  67  65  93 E3        29.86S
6HR MIN TEMP:  67; 6HR MAX TEMP:  74; 6HR PCP:  0.07;

HOT SPRINGS    PTCLDY    68  63  84 E9        29.81F
6HR MIN TEMP:  66; 6HR MAX TEMP:  73; 6HR PCP:  0.11;

RUSSELLVILLE   MOCLDY    71  61  70 E7        29.82F
6HR MIN TEMP:  71; 6HR MAX TEMP:  75; 6HR PCP: TRACE;

CLINTON        FAIR      68  63  83 E3        29.85F
$$

ARZ036-190100-
EAST ARKANSAS

CITY           SKY/WX    TMP DP  RH WIND       PRES   REMARKS
WEST MEMPHIS   CLOUDY    68  64  87 SW3       29.84S
6HR MIN TEMP:  68; 6HR MAX TEMP:  73;

$$

ARZ050-053-066-070-073-190100-
SOUTHWEST ARKANSAS

CITY           SKY/WX    TMP DP  RH WIND       PRES   REMARKS
ARKADELPHIA    MOCLDY    71  68  90 CALM      29.81S
6HR MIN TEMP:  69; 6HR MAX TEMP:  74; 6HR PCP:  0.02;

CAMDEN         CLOUDY    66  63  88 N6        29.80F
TEXARKANA      CLEAR     71  64  78 E5        29.79S
6HR MIN TEMP:  66; 6HR MAX TEMP:  73; 6HR PCP:  0.01;

EL DORADO      CLOUDY    68  64  87 NE12      29.79F
6HR MIN TEMP:  67; 6HR MAX TEMP:  70; 6HR PCP:  0.27;

DE QUEEN       CLEAR     71  63  75 E7        29.77F
6HR MIN TEMP:  71; 6HR MAX TEMP:  75;

$$

ARZ056-057-069-190100-
SOUTHEAST ARKANSAS

CITY           SKY/WX    TMP DP  RH WIND       PRES   REMARKS
PINE BLUFF     CLOUDY    66  64  93 E10       29.82F
6HR MIN TEMP:  65; 6HR MAX TEMP:  70; 6HR PCP:  0.14;

STUTTGART      CLOUDY    66  63  88 E10       29.84S
6HR MIN TEMP:  66; 6HR MAX TEMP:  73; 6HR PCP:  0.08;

MONTICELLO     LGT RAIN  66  65  96 NE8       29.80F
6HR MIN TEMP:  65; 6HR MAX TEMP:  68; 6HR PCP:  0.61;


$$




USA.gov is the U.S. government's official web portal to all federal, state and local government web resources and services.